Regional Weather Roundup
Issued by NWS

Home | Current Version | Previous Version | Graphics & Text | Print | Product List | Glossary On
Versions: 1 2 3 4 5 6 7 8 9 10 11 12 13 14 15 16 17 18 19 20 21 22 23 24 25 26 27 28 29 30 31 32 33 34 35 36 37 38 39 40 41 42 43 44 45 46 47 48 49 50
815
ASUS44 KMEG 250710
RWRTN
TENNESSEE HOURLY STATE WEATHER ROUNDUP
NATIONAL WEATHER SERVICE MEMPHIS TN
200 AM CDT TUE APR 25 2017

TNZ002-004-019-021-049-052-054-088>092-250800-
WEST TENNESSEE

CITY           SKY/WX    TMP DP  RH WIND       PRES   REMARKS
MEMPHIS INTL   CLEAR     58  55  90 S6        29.77S
NWS MEMPHIS      N/A     56 N/A N/A MISG        N/A
JACKSON        CLEAR     54  53  97 S5        29.77F
DYERSBURG      CLEAR     57  55  93 CALM      29.77S
SOMERVILLE     PTCLDY    55  54  94 S5        29.76F
UNION CITY     CLEAR     55  54  94 S6        29.76S
BOLIVAR        CLEAR     52  50  93 CALM      29.77S
PARIS          CLEAR     52  52 100 CALM      29.77S
HUNTINGDON     CLEAR     54  54 100 CALM      29.76S
LEXINGTON      FOG       50  50 100 CALM      29.77S VSB 1/4
SAVANNAH       CLEAR     48  48 100 CALM      29.77S FOG
$$

TNZ008-025-027-028-033-062-065-066-250800-
NORTH MIDDLE TENNESSEE

CITY           SKY/WX    TMP DP  RH WIND       PRES   REMARKS
NASHVILLE      CLEAR     54  53  97 CALM      29.77S
PORTLAND       CLEAR     54  52  94 CALM      29.76S
CLARKSVILLE    CLEAR     55  53  93 W3        29.76S
SMYRNA         CLEAR     52  51  97 CALM      29.77S
COOKEVILLE     FOG       54  54 100 CALM      29.75S VSB 3/4
GALLATIN       FOG       52  52 100 CALM      29.78F VSB 1
CROSSVILLE     CLOUDY    55  53  93 CALM      29.77F
$$

TNZ061-075-076-078-094-096-097-250800-
SOUTH MIDDLE TENNESSEE

CITY           SKY/WX    TMP DP  RH WIND       PRES   REMARKS
FAYETTEVILLE   CLOUDY    52  52 100 CALM      29.76F
TULLAHOMA      CLOUDY    46  46 100 W5        29.77F VSB 1/4
WINCHESTER     CLOUDY    54  54 100 CALM      29.77F
MCMINNVILLE    CLEAR     54  54 100 CALM      29.76S
COLUMBIA         N/A    N/A N/A N/A CALM      29.76F VSB 3/4
SHELBYVILLE    CLOUDY    52  50  93 CALM      29.77F VSB 1/4
$$

TNZ017-018-042-046-047-250800-
NORTHEAST TENNESSEE

CITY           SKY/WX    TMP DP  RH WIND       PRES   REMARKS
TRI CITIES     CLOUDY    54  50  86 E3        29.73F
ELIZABETHTON   CLOUDY    54  52  94 SW5       29.72F
$$

TNZ012-013-036-069-073-074-250800-
CENTRAL EAST TENNESSEE

CITY           SKY/WX    TMP DP  RH WIND       PRES   REMARKS
KNOXVILLE      CLEAR     55  51  86 N7        29.73R
OAK RIDGE      PTCLDY    55  52  89 CALM      29.76S
DOWNTOWN KNOXV PTCLDY    54  54 100 CALM      29.74S
GATLINBURG     CLEAR     52  50  93 CALM      29.72F
MORRISTOWN     CLEAR     54  52  94 CALM      29.72S
JACKSBORO      CLOUDY    55  55 100 CALM      29.79R
$$

TNZ083-085-099-250800-
SOUTHEAST TENNESSEE

CITY           SKY/WX    TMP DP  RH WIND       PRES   REMARKS
CHATTANOOGA    CLOUDY    61  56  83 NW3       29.75S
$$

SKY/WX REPORTED AS FAIR MEANS FEW OR NO CLOUDS BELOW
12 THOUSAND FEET.





USA.gov is the U.S. government's official web portal to all federal, state and local government web resources and services.